FW0177 Weather Reports


time (UTC)temp
C
wind
direction
speed
KPH
gust
KPH
rain 1hr
cm
rain 24hr
cm
rain mn
cm
humidity
%
barometer
mb
20260906114602 22 0 0.0 0.0 0.00 0.00 0.00 97 1013.4
20260906113102 22 0 0.0 0.0 0.00 0.00 0.00 96 1013.5
20260906111558 22 0 0.0 0.0 0.00 0.00 0.00 97 1013.3
20260906104601 22 0 0.0 0.0 0.00 0.00 0.00 97 1013.1
20260906103100 22 0 0.0 0.0 0.00 0.00 0.00 97 1013.0
20260906101601 22 0 0.0 0.0 0.00 0.00 0.00 97 1012.8
20260906100100 22 0 0.0 0.0 0.00 0.00 0.00 96 1012.8
20260906094601 22 0 0.0 0.0 0.00 0.00 0.00 96 1012.7
20260906093103 22 0 0.0 0.0 0.00 0.00 0.00 97 1012.5
20260906091558 22 0 0.0 0.0 0.00 0.00 0.00 97 1012.3
20260906090103 22 0 0.0 0.0 0.00 0.00 0.00 97 1012.3
20260906084603 22 0 0.0 0.0 0.00 0.00 0.00 97 1012.3
20260906083103 22 0 0.0 0.0 0.00 0.00 0.00 96 1012.2
20260906081604 22 0 0.0 0.0 0.00 0.00 0.00 96 1012.0
20260906074600 22 0 0.0 0.0 0.00 0.00 0.00 96 1011.6
20260906073104 22 0 0.0 0.0 0.00 0.00 0.00 96 1011.7
20260906071601 22 0 0.0 0.0 0.00 0.00 0.00 96 1011.5
20260906064602 23 0 0.0 0.0 0.00 0.00 0.00 96 1011.8
20260906063101 23 0 0.0 0.0 0.00 0.00 0.00 96 1012.0
20260906061618 23 0 0.0 0.0 0.00 0.00 0.00 96 1011.9
20260906060121 23 0 0.0 0.0 0.00 0.00 0.00 95 1012.0
20260906054601 23 0 0.0 0.0 0.00 0.00 0.00 95 1012.2
20260906053102 23 0 0.0 0.0 0.00 0.00 0.00 95 1012.1
20260906051609 23 0 0.0 0.0 0.00 0.00 0.00 95 1012.3
20260906050104 23 0 0.0 0.0 0.00 0.00 0.00 95 1012.4
20260906044603 23 0 0.0 0.0 0.00 0.03 0.00 95 1012.4
20260906043102 24 0 0.0 0.0 0.00 0.03 0.00 95 1012.5
20260906041602 24 0 0.0 0.0 0.00 0.03 0.00 94 1012.8
20260906040106 24 0 0.0 0.0 0.00 0.03 0.00 94 1012.9
20260906034606 24 0 0.0 0.0 0.00 0.03 0.00 94 1013.2
20260906033059 25 0 0.0 0.0 0.00 0.03 0.00 94 1013.2
20260906031600 25 0 0.0 0.0 0.00 0.03 0.00 94 1013.2
20260906030109 25 0 0.0 0.0 0.00 0.03 0.00 94 1013.2
20260906024603 25 0 0.0 0.0 0.00 0.03 0.00 94 1013.3
20260906023107 25 0 0.0 0.0 0.00 0.03 0.00 93 1013.1
20260906021604 25 0 0.0 0.0 0.00 0.03 0.00 93 1012.6
20260906020101 25 0 0.0 0.0 0.00 0.03 0.00 92 1012.4
20260906014607 25 0 0.0 0.0 0.00 0.03 0.00 92 1012.0
20260906013102 25 0 0.0 0.0 0.00 0.03 0.00 91 1011.8
20260906011606 25 0 0.0 0.0 0.00 0.03 0.00 91 1011.8
20260906004604 26 0 0.0 0.0 0.00 0.03 0.00 89 1011.7
20260906003105 26 0 0.0 0.0 0.00 0.03 0.00 87 1011.5
20260906001602 26 0 0.0 0.0 0.00 0.03 0.00 86 1011.5
20260906000109 27 0 0.0 1.6 0.00 0.03 0.00 85 1011.5
20260905234609 27 0 0.0 1.6 0.00 0.10 0.00 84 1011.6
20260905233117 27 0 0.0 0.0 0.00 0.10 0.00 82 1011.6
20260905231604 28 0 0.0 0.0 0.00 0.10 0.00 81 1011.7
20260905230105 28 0 0.0 0.0 0.00 0.10 0.00 78 1011.7
20260905224601 29 0 0.0 0.0 0.00 0.15 0.00 76 1011.7
20260905223102 30 0 0.0 0.0 0.00 0.15 0.00 75 1011.8
20260905221605 30 0 0.0 1.6 0.00 0.15 0.00 71 1011.8
20260905220105 31 0 0.0 0.0 0.00 0.15 0.00 69 1012.1
20260905214604 31 0 0.0 6.4 0.00 0.15 0.00 67 1012.2
20260905213113 31 0 0.0 1.6 0.00 0.15 0.00 67 1012.3
20260905211611 30 0 0.0 1.6 0.00 0.15 0.00 69 1012.4
20260905210112 30 0 0.0 0.0 0.00 0.15 0.00 70 1012.5
20260905204603 30 0 0.0 1.6 0.00 0.15 0.00 70 1012.5
20260905203107 30 0 0.0 3.2 0.00 0.15 0.00 70 1012.6
20260905201600 30 0 0.0 9.7 0.00 0.15 0.00 69 1012.8
20260905200105 31 0 0.0 8.0 0.00 0.15 0.00 70 1012.9
20260905194603 31 0 0.0 6.4 0.00 0.15 0.00 71 1013.0
20260905193104 31 0 0.0 6.4 0.00 0.15 0.00 69 1013.4
20260905191602 31 181 0.0 9.7 0.00 0.15 0.00 71 1013.7
20260905190104 31 0 1.6 12.9 0.00 0.15 0.00 73 1014.1
20260905184611 30 0 0.0 8.0 0.00 0.15 0.00 78 1014.4
20260905183119 28 0 0.0 3.2 0.00 0.15 0.00 81 1014.5
20260905181602 28 0 0.0 3.2 0.00 0.15 0.00 84 1014.9
20260905180108 27 0 0.0 1.6 0.00 0.15 0.00 85 1015.1
20260905174601 27 0 0.0 8.0 0.00 0.15 0.00 88 1015.2
20260905173108 26 0 0.0 4.8 0.00 0.15 0.00 90 1015.3
20260905171603 26 0 0.0 3.2 0.00 0.15 0.00 91 1015.4
20260905170109 26 0 0.0 3.2 0.00 0.15 0.00 92 1015.7
20260905164604 26 0 0.0 1.6 0.00 0.15 0.00 92 1015.9
20260905163108 25 0 0.0 6.4 0.00 0.15 0.00 93 1015.8
20260905161605 25 0 0.0 0.0 0.00 0.15 0.00 94 1015.8
20260905160107 25 0 0.0 1.6 0.00 0.15 0.00 95 1015.8
20260905154601 25 0 0.0 1.6 0.00 0.15 0.00 94 1015.7
20260905153116 25 0 0.0 1.6 0.00 0.15 0.00 94 1015.8
20260905151611 25 0 0.0 3.2 0.00 0.15 0.00 94 1015.7
20260905150105 25 0 0.0 1.6 0.00 0.15 0.00 94 1015.6
20260905144603 25 0 0.0 0.0 0.00 0.15 0.00 94 1015.5
20260905143103 25 0 0.0 0.0 0.00 0.15 0.00 94 1015.2
20260905141626 25 0 0.0 0.0 0.00 0.15 0.00 96 1015.4
20260905140109 25 0 0.0 1.6 0.00 0.15 0.00 97 1015.4
20260905134604 25 0 0.0 0.0 0.00 0.15 0.00 98 1015.1
20260905133101 25 0 0.0 0.0 0.00 0.15 0.00 98 1015.0
20260905131618 24 0 0.0 0.0 0.00 0.15 0.00 98 1014.9
20260905130114 24 0 0.0 0.0 0.00 0.15 0.00 98 1014.9
20260905124602 23 0 0.0 0.0 0.00 0.15 0.00 98 1014.8
20260905123115 23 0 0.0 0.0 0.00 0.15 0.00 98 1014.8
20260905121603 23 0 0.0 0.0 0.00 0.15 0.00 98 1014.7